Regional Weather Roundup
Issued by NWS

Home | Current Version | Previous Version | Graphics & Text | Print | Product List | Glossary On
Versions: 1 2 3 4 5 6 7 8 9 10 11 12 13 14 15 16 17 18 19 20 21 22 23 24 25 26 27 28 29 30 31 32 33 34 35 36 37 38 39 40 41 42 43 44 45 46 47 48 49 50
582
ASUS43 KLMK 200410
RWRKY
KENTUCKY REGIONAL WEATHER ROUNDUP
NATIONAL WEATHER SERVICE LOUISVILLE KY
1100 PM EST FRI JAN 19 2018

NOTE "FAIR" INDICATES FEW OR NO CLOUDS BELOW 12,000 FEET
WITH NO SIGNIFICANT WEATHER AND/OR OBSTRUCTIONS TO VISIBILITY.

KYZ001>023-026-027-061>063-070>075-200500-
WESTERN AND SOUTH CENTRAL KENTUCKY

CITY           SKY/WX    TMP DP  RH WIND       PRES   REMARKS
PADUCAH        FAIR      39  18  42 SW15G24   30.09S WCI  31
HENDERSON      FAIR      37  22  54 S10       30.06S WCI  30
OWENSBORO      FAIR      33  22  63 S9        30.08S WCI  25
HOPKINSVILLE   CLOUDY    41  21  44 S12       30.12S
BOWLING GREEN  MOCLDY    38  24  57 S6        30.14R WCI  33
GLASGOW        CLOUDY    39  21  49 SW6       30.14R WCI  35
$$

KYZ024-025-028>034-038-045-046-053-200500-
NORTH CENTRAL KENTUCKY

CITY           SKY/WX    TMP DP  RH WIND       PRES   REMARKS
LOUISVILLE/SDF MOCLDY    40  24  53 S12       30.08R WCI  33
LOUISVILLE/LOU FAIR      36  24  62 S9        30.08S WCI  29
FORT KNOX      FAIR      34  21  60 S7        30.06F WCI  28
$$

KYZ035>037-039>044-047>052-055>060-089>105-200500-
NORTHEAST KENTUCKY

CITY           SKY/WX    TMP DP  RH WIND       PRES   REMARKS
LEXINGTON      FAIR      35  19  52 S14       30.09F WCI  26
COVINGTON      FAIR      36  21  54 S14       30.02F WCI  27
FRANKFORT      FAIR      35  18  49 SW9       30.07F WCI  28
$$

KYZ054-064>069-076>088-106>120-200500-
SOUTHEAST KENTUCKY

CITY           SKY/WX    TMP DP  RH WIND       PRES   REMARKS
JACKSON        FAIR      35  14  42 SW6       30.13S WCI  30
LONDON         FAIR      33  15  47 S7        30.16S WCI  27
SOMERSET       FAIR      32  16  51 S7        30.18S WCI  26
MIDDLESBORO    FAIR      22  19  88 CALM      30.21S
MONTICELLO     NOT AVBL
$$





USA.gov is the U.S. government's official web portal to all federal, state and local government web resources and services.